Park Rapids, MN

4:50 PM CDT on April 24, 2017 (GMT -0500)
Park Rapids Municipal

Weather History for KPKD - November, 2013

Change the Weather History Date:

Wednesday, November 20, 2013

  Actual Average Record
Temperature  
Mean Temperature 38 °F -  
Max Temperature 46 °F 31 °F 56 °F (1962)
Min Temperature 30 °F 16 °F -8 °F (1978)
Degree Days  
Heating Degree Days 27    
Moisture  
Dew Point 29 °F    
Average Humidity 70    
Maximum Humidity 92    
Minimum Humidity 52    
Precipitation  
Precipitation 0.00 in - - ()
Sea Level Pressure  
Sea Level Pressure 29.87 in    
Wind  
Wind Speed 11 mph (SSE)    
Max Wind Speed 16 mph    
Max Gust Speed 24 mph    
Visibility 9 miles    
Events      
Averages and records for this station are not official NWS values.
T = Trace of Precipitation, MM = Missing Value Source: NWS Daily Summary

Daily Weather History Graph

Daily Weather History Graph

Search for Another Location

Airport or City:

Trip Planner

Search our weather history database for the weather conditions in past years. The results will help you decide how hot, cold, wet, or windy it might be!

Date:

Astronomy

Nov. 20, 2013 Rise Set
Actual Time 7:30 AM CST 4:40 PM CST
Civil Twilight 6:57 AM CST 5:14 PM CST
Nautical Twilight 6:19 AM CST 5:51 PM CST
Astronomical Twilight 5:43 AM CST 6:27 PM CST
Moon 7:24 PM CST (11/20) 9:57 AM CST (11/20)
Length of Visible Light 10h 17m
Length of Day
9h 09m
Waning Gibbous, 91% of the Moon is Illuminated
Nov 20
Waning Gibbous
Nov 25
Last Quarter
Dec 2
New
Dec 9
First Quarter
Dec 17
Full

Hourly Weather History & Observations

Time (CST) Temp. Windchill Dew Point Humidity Pressure Visibility Wind Dir Wind Speed Gust Speed Precip Events Conditions
12:53 AM 43.0 °F 35.4 °F 30.0 °F 60% 29.73 in 10.0 mi South 16.1 mph 24.2 mph N/A   Clear
1:53 AM 43.0 °F 35.7 °F 30.0 °F 60% 29.74 in 10.0 mi South 15.0 mph 23.0 mph N/A   Clear
2:53 AM 43.0 °F 35.4 °F 30.0 °F 60% 29.75 in 10.0 mi South 16.1 mph - N/A   Clear
3:53 AM 43.0 °F 36.0 °F 30.0 °F 60% 29.76 in 10.0 mi South 13.8 mph - N/A   Mostly Cloudy
4:53 AM 42.1 °F 34.9 °F 30.0 °F 62% 29.76 in 10.0 mi South 13.8 mph - N/A   Clear
5:53 AM 41.0 °F 34.7 °F 30.0 °F 65% 29.78 in 10.0 mi South 10.4 mph - N/A   Clear
6:53 AM 39.9 °F 33.4 °F 30.0 °F 68% 29.80 in 10.0 mi South 10.4 mph - N/A   Clear
7:53 AM 36.0 °F 30.3 °F 28.9 °F 76% 29.82 in 10.0 mi SSE 6.9 mph - N/A   Clear
8:53 AM 37.9 °F 31.5 °F 30.0 °F 73% 29.83 in 10.0 mi South 9.2 mph - N/A   Clear
9:53 AM 39.9 °F 34.5 °F 30.0 °F 68% 29.86 in 10.0 mi SSE 8.1 mph - N/A   Clear
10:53 AM 44.1 °F 37.7 °F 30.0 °F 58% 29.86 in 10.0 mi SSE 12.7 mph - N/A   Clear
11:53 AM 45.0 °F 40.6 °F 30.0 °F 56% 29.85 in 10.0 mi South 8.1 mph - N/A   Clear
12:53 PM 46.9 °F - 30.0 °F 52% 29.83 in 10.0 mi South 6.9 mph - N/A   Clear
1:53 PM 46.9 °F - 30.0 °F 52% 29.85 in 10.0 mi SSW 6.9 mph - N/A   Clear
2:53 PM 46.9 °F - 30.0 °F 52% 29.85 in 10.0 mi South 6.9 mph - N/A   Clear
3:53 PM 46.0 °F 43.9 °F 30.0 °F 54% 29.86 in 10.0 mi SSE 4.6 mph - N/A   Clear
4:53 PM 39.0 °F 35.7 °F 28.9 °F 67% 29.89 in 10.0 mi SE 4.6 mph - N/A   Clear
5:53 PM 37.9 °F 34.4 °F 28.9 °F 70% 29.92 in 10.0 mi SE 4.6 mph - N/A   Clear
6:53 PM 34.0 °F 28.8 °F 28.0 °F 79% 29.95 in 10.0 mi NNE 5.8 mph - N/A   Clear
7:53 PM 30.9 °F 24.3 °F 28.0 °F 89% 29.98 in 9.0 mi NNE 6.9 mph - N/A   Clear
8:53 PM 30.9 °F 22.8 °F 28.0 °F 89% 30.00 in 8.0 mi North 9.2 mph - N/A   Overcast
9:40 PM 30.9 °F 22.8 °F 28.0 °F 89% 29.97 in 8.0 mi NNW 9.2 mph - N/A   Overcast
9:53 PM 30.9 °F 23.5 °F 28.0 °F 89% 30.03 in 8.0 mi North 8.1 mph - N/A   Overcast
10:44 PM 30.9 °F 25.2 °F 28.9 °F 92% 29.98 in 7.0 mi North 5.8 mph - N/A   Overcast
10:53 PM 30.9 °F 24.3 °F 28.9 °F 92% 30.03 in 7.0 mi North 6.9 mph - N/A   Overcast
11:53 PM 30.9 °F 22.8 °F 28.9 °F 92% 30.06 in 6.0 mi NNW 9.2 mph - N/A   Overcast